TimeHST,TemperatureF,Dew PointF,Humidity,Sea Level PressureIn,VisibilityMPH,Wind Direction,Wind SpeedMPH,Gust SpeedMPH,PrecipitationIn,Events,Conditions,WindDirDegrees,DateUTC
12:53 AM,70.0,61.0,73,30.17,10.0,NNE,5.8,-,N/A,,Mostly Cloudy,30,2013-02-26 10:53:00
1:53 AM,70.0,61.0,73,30.15,10.0,NNE,5.8,-,N/A,,Mostly Cloudy,30,2013-02-26 11:53:00
2:53 AM,66.9,61.0,81,30.14,10.0,Calm,Calm,-,N/A,,Partly Cloudy,0,2013-02-26 12:53:00
3:53 AM,64.9,61.0,87,30.13,10.0,West,5.8,-,N/A,,Mostly Cloudy,270,2013-02-26 13:53:00
4:53 AM,64.0,59.0,84,30.12,10.0,Calm,Calm,-,N/A,,Mostly Cloudy,0,2013-02-26 14:53:00
5:53 AM,64.0,59.0,84,30.13,10.0,SSW,4.6,-,0.01,,Overcast,200,2013-02-26 15:53:00
6:42 AM,63.0,59.0,87,30.15,10.0,WSW,5.8,-,0.01,,Mostly Cloudy,240,2013-02-26 16:42:00
6:53 AM,64.0,59.0,84,30.15,10.0,Calm,Calm,-,0.01,,Mostly Cloudy,0,2013-02-26 16:53:00
7:00 AM,64.0,59.0,84,30.16,10.0,Calm,Calm,-,N/A,,Mostly Cloudy,0,2013-02-26 17:00:00
7:53 AM,66.0,60.1,81,30.17,10.0,West,4.6,-,N/A,,Scattered Clouds,270,2013-02-26 17:53:00
8:53 AM,71.1,62.1,73,30.18,10.0,NNW,5.8,-,0.00,,Overcast,330,2013-02-26 18:53:00
9:15 AM,72.0,62.1,71,30.18,10.0,NW,9.2,-,N/A,,Mostly Cloudy,320,2013-02-26 19:15:00
9:53 AM,73.0,61.0,66,30.18,10.0,NNW,5.8,-,0.00,,Mostly Cloudy,330,2013-02-26 19:53:00
10:53 AM,75.0,63.0,66,30.18,10.0,NNW,5.8,-,N/A,,Mostly Cloudy,340,2013-02-26 20:53:00
11:27 AM,72.0,64.9,78,30.17,10.0,North,3.5,-,0.03,,Overcast,10,2013-02-26 21:27:00
11:36 AM,73.9,64.0,71,30.17,10.0,North,6.9,-,0.03,,Mostly Cloudy,360,2013-02-26 21:36:00
11:53 AM,75.0,64.0,69,30.16,10.0,North,9.2,-,0.03,,Mostly Cloudy,350,2013-02-26 21:53:00
12:53 PM,75.9,62.1,62,30.14,10.0,NE,11.5,-,N/A,,Mostly Cloudy,50,2013-02-26 22:53:00
1:53 PM,75.0,60.1,60,30.12,10.0,North,8.1,-,0.00,,Mostly Cloudy,350,2013-02-26 23:53:00
2:53 PM,73.9,60.1,62,30.11,10.0,Variable,4.6,-,N/A,,Mostly Cloudy,0,2013-02-27 00:53:00
3:53 PM,75.9,60.1,58,30.10,10.0,North,8.1,-,N/A,,Mostly Cloudy,350,2013-02-27 01:53:00
4:53 PM,71.1,64.0,78,30.11,10.0,NNE,8.1,-,0.01,,Overcast,20,2013-02-27 02:53:00
5:28 PM,68.0,64.0,87,30.13,1.8,East,10.4,19.6,0.01,Rain,Heavy Rain,100,2013-02-27 03:28:00
5:37 PM,66.9,64.0,90,30.12,2.5,Calm,Calm,-,0.18,Rain,Light Rain,0,2013-02-27 03:37:00
5:44 PM,66.9,64.0,90,30.13,10.0,Calm,Calm,-,0.18,Rain,Light Rain,0,2013-02-27 03:44:00
5:53 PM,68.0,64.0,87,30.13,10.0,West,4.6,-,0.18,,Overcast,260,2013-02-27 03:53:00
6:45 PM,68.0,64.9,90,30.15,2.0,Variable,5.8,-,0.04,Rain,Heavy Rain,0,2013-02-27 04:45:00
6:49 PM,68.0,64.4,88,30.15,2.5,NNE,4.6,-,0.07,Rain,Heavy Rain,20,2013-02-27 04:49:00
6:53 PM,68.0,64.9,90,30.15,4.0,North,4.6,-,0.11,Rain,Light Rain,360,2013-02-27 04:53:00
7:53 PM,68.0,63.0,84,30.16,10.0,WNW,5.8,-,0.00,,Overcast,290,2013-02-27 05:53:00
8:53 PM,66.9,63.0,87,30.17,10.0,WSW,4.6,-,0.00,,Mostly Cloudy,240,2013-02-27 06:53:00
9:53 PM,66.9,63.0,87,30.19,9.0,West,4.6,-,0.06,Rain,Light Rain,280,2013-02-27 07:53:00
10:20 PM,68.0,63.0,84,30.19,10.0,ESE,3.5,-,0.00,,Scattered Clouds,110,2013-02-27 08:20:00
10:53 PM,68.0,63.0,84,30.19,10.0,ENE,10.4,-,0.00,,Overcast,70,2013-02-27 08:53:00
11:53 PM,69.1,62.1,78,30.18,10.0,ENE,5.8,-,N/A,,Overcast,60,2013-02-27 09:53:00